Regional Weather Roundup
Issued by NWS

Home | Current Version | Previous Version | Text Only | Print | Product List | Glossary Off
Versions: 1 2 3 4 5 6 7 8 9 10 11 12 13 14 15 16 17 18 19 20 21 22 23 24 25 26 27 28 29 30 31 32 33 34 35 36 37 38 39 40 41 42 43 44 45 46 47 48 49 50

000
ASUS43 KMPX 152310
RWRMN
WEATHER ROUNDUP FOR MINNESOTA
NATIONAL WEATHER SERVICE TWIN CITIES/CHANHASSEN MN
600 PM CDT MON SEP 15 2014


NOTE: "FAIR" INDICATES FEW OR NO CLOUDS BELOW 12,000 FEET WITH NO
SIGNIFICANT WEATHER AND/OR OBSTRUCTIONS TO VISIBILITY. N/A MEANS
CURRENT SKY AND/OR WEATHER CONDITIONS ARE NOT AVAILABLE.

MNZ060>063-068>070-160000-
   Twin Cities Metro

CITY           SKY/WX    TMP DP  RH WIND       PRES   REMARKS
TWIN CITIES    MOSUNNY   60  37  42 W10       30.19S
ST PAUL        MOSUNNY   59  39  47 NW14      30.20R
CRYSTAL        MOSUNNY   61  36  39 NW10      30.19S
BLAINE         MOSUNNY   61  39  44 NW8       30.19S
LAKEVILLE      MOSUNNY   57  37  47 NW7       30.19S
EDEN PRAIRIE   MOSUNNY   61  39  44 N7        30.19R
SOUTH ST PAUL  MOSUNNY   61  36  40 N9        30.19R
LAKE ELMO      FAIR      59  37  44 N6G16     30.20R
$$
MNZ001>005-007-008-013>017-022>024-027-028-160000-
   Northwest Minnesota

CITY           SKY/WX    TMP DP  RH WIND       PRES   REMARKS
BEMIDJI        MOSUNNY   59  36  43 W9        30.15S
HALLOCK        SUNNY     66  36  32 W12G18    30.06F
ROSEAU         SUNNY     63  34  34 W3        30.09F
WARROAD        SUNNY     61  37  41 W5        30.09F
THIEF RVR FALL MOSUNNY   63  37  39 SW12      30.11F
CROOKSTON      PTSUNNY   64  37  36 W14       30.12S
FOSSTON        PTSUNNY   63  37  39 W9        30.15S
DETROIT LAKES  MOSUNNY   59  34  38 W7        30.19R
MOORHEAD       MOSUNNY   64  28  25 SW8       30.17S
PARK RAPIDS    MOSUNNY   59  33  37 W10       30.17S
MAHNOMEN       FAIR      60  36  40 W6        30.15S
$$
MNZ006-009>011-018-025>026-160000-
   North Central Minnesota

CITY           SKY/WX    TMP DP  RH WIND       PRES   REMARKS
BAUDETTE       SUNNY     59  35  40 VRB6      30.10S
FLAG ISLAND    SUNNY     61  36  39 W10       30.06F
INTL FALLS     SUNNY     55  37  50 W6        30.10S
WASKISH        MOSUNNY   57  43  58 CALM      30.12F
BIG FORK       MOSUNNY   59  34  38 W9        30.15S
LONGVILLE      SUNNY     57  37  47 CALM      30.16S
GRAND RAPIDS   MOSUNNY   57  32  38 W10       30.16S
CRANE LAKE     MOSUNNY   57  34  41 CALM      30.12F
ORR            SUNNY     57  34  41 W5        30.10S
COOK           SUNNY     57  36  44 W8        30.14S
WALKER         MOCLDY    57  35  42 W6        30.16S
$$
MNZ012-019>021-037-160000-
   Northeast Minnesota

CITY           SKY/WX    TMP DP  RH WIND       PRES   REMARKS
DULUTH         MOSUNNY   55  34  45 W7        30.15R
ELY            SUNNY     54  36  50 W7        30.12S
HIBBING        PTSUNNY   56  35  45 W3        30.15S
EVELETH        PTSUNNY   57  36  44 W3        30.15S
DULUTH HARBOR  PTSUNNY   61  37  41 W9        30.16S
TWO HARBORS    MOSUNNY   55  37  50 W5        30.12S
SILVER BAY     SUNNY     55  39  54 W3        30.11S
GRAND MARAIS     N/A     58  37  45 W6        30.09S
G MARAIS ARPRT SUNNY     52  34  50 W8        30.11R
$$
MNZ029>031-032-039>041-046>048-054>057-064-160000-
   West Central Minnesota

CITY           SKY/WX    TMP DP  RH WIND       PRES   REMARKS
FERGUS FALLS   SUNNY     61  30  31 W7        30.19F
WHEATON        SUNNY     61  34  36 W6        30.22S
MORRIS         SUNNY     63  32  31 NW6       30.20S
ALEXANDRIA     SUNNY     59  34  39 NW7       30.21F
ELBOW LAKE     FAIR      60  34  37 NW3       30.19F
WADENA         SUNNY     57  36  44 NW8       30.19R
GLENWOOD       SUNNY     57  34  41 NW5       30.21S
APPLETON       SUNNY     63  30  29 NW7       30.21S
BENSON         SUNNY     61  36  39 N6        30.21S
ORTONVILLE     SUNNY     61  28  29 NW3       30.21F
MADISON        SUNNY     63  36  36 N8        30.22S
WILLMAR        FAIR      61  34  36 W7        30.22S
$$
MNZ033>034-036-042>043-049>051-058-059-160000-
   Central Minnesota

CITY           SKY/WX    TMP DP  RH WIND       PRES   REMARKS
ST CLOUD       MOSUNNY   62  36  37 N9        30.19S
SAUK CENTRE    FAIR      58  34  40 W6        30.21R
PAYNESVILLE    SUNNY     57  35  44 W6        30.21S
AITKIN         SUNNY     61  36  39 CALM      30.16F
PINE RIVER     MOSUNNY   59  37  44 W3        30.20S
BRAINERD       SUNNY     58  34  40 NE3       30.18F
STAPLES        SUNNY     57  30  35 NW9       30.18S
LONG PRAIRIE   FAIR      57  34  41 W6        30.20S
LITTLE FALLS   MOSUNNY   59  32  36 W3        30.19F
LITCHFIELD     SUNNY     61  37  41 NW9       30.21S
BUFFALO        MOSUNNY   59  36  41 NW5       30.21R
MAPLE LAKE     SUNNY     59  40  50 W3        30.21R
$$
MNZ037-044-045-052-053-160000-
   East Central Minnesota

CITY           SKY/WX    TMP DP  RH WIND       PRES   REMARKS
PRINCETON      SUNNY     61  37  41 W8        30.19S
MORA           SUNNY     55  34  44 NW8       30.20S
CAMBRIDGE      SUNNY     61  43  51 NW8       30.17S
RUSH CITY      MOSUNNY   57  36  45 NW7       30.19S
MOOSE LAKE     SUNNY     55  34  44 N3        30.16S
HINCKLEY       FAIR      55  37  50 NW5       30.18S
CLOQUET        MOSUNNY   55  32  41 NW7       30.16S
MCGREGOR       MOSUNNY   57  34  41 W8        30.17F
$$
MNZ071>073-080-081-089-090-097-098-160000-
   Southwest Minnesota

CITY           SKY/WX    TMP DP  RH WIND       PRES   REMARKS
MONTEVIDEO     SUNNY     64  37  36 N9        30.23R
GRANITE FALLS  SUNNY     60  37  41 NW6       30.23S
CANBY          SUNNY     61  36  39 NW7       30.23S
MARSHALL       SUNNY     61  36  39 NW7       30.22S
REDWOOD FALLS  SUNNY     62  37  39 N9        30.21S
OLIVIA         MOSUNNY   61  37  41 W9        30.21R
PIPESTONE      SUNNY     61  36  39 NW6       30.22F
WINDOM         MOSUNNY   59  39  47 NW5       30.23S
WORTHINGTON    MOSUNNY   57  39  51 N6        30.24S
JACKSON        SUNNY     59  36  41 NW6       30.23S
TRACY          SUNNY     61  40  46 CALM      30.23S
SLAYTON        SUNNY     59  37  43 CALM      30.23S
$$
MNZ065>067-074>077-082>085-091>093-160000-
   South Central Minnesota

CITY           SKY/WX    TMP DP  RH WIND       PRES   REMARKS
MANKATO        SUNNY     61  36  39 N9        30.21R
NEW ULM        SUNNY     61  39  44 NW7       30.21S
ST JAMES       SUNNY     61  37  41 NW6       30.23S
FAIRMONT       PTSUNNY   61  37  41 NW9       30.22R
GLENCOE        SUNNY     60  35  38 NW5       30.20S
FARIBAULT      SUNNY     63  32  31 N5        30.20S
OWATONNA       PTSUNNY   55  41  58 N8        30.20S
WASECA         MOSUNNY   55  34  44 NW5       30.22S
ALBERT LEA     SUNNY     57  43  58 NW5       30.20S
$$
MNZ078>079-086>088-094>096-160000-
   Southeast Minnesota

CITY           SKY/WX    TMP DP  RH WIND       PRES   REMARKS
ROCHESTER      PTSUNNY   58  40  51 N8        30.20S
RED WING       MOSUNNY   59  39  47 N3        30.18R
STANTON        SUNNY     60  37  42 NW7       30.18S
DODGE CENTER   SUNNY     57  43  58 NW7       30.19S
WINONA         SUNNY     59  43  55 NW9       30.18R
AUSTIN         PTSUNNY   57  43  58 N7        30.19R
PRESTON        SUNNY     56  47  71 NW6       30.19S
$$
ABBREVIATIONS USED IN REMARKS
   TC - TEMPERATURES IN CELSIUS
  WCI - WIND CHILL INDEX
   HX - HEAT INDEX
  VSB - VISIBILITY
$$



USA.gov is the U.S. government's official web portal to all federal, state and local government web resources and services.